Flag for U.S.A. Weather past 2 weeks in Winston-Salem, North Carolina, U.S.A.

Now
51 °F

Sunny.


Feels Like: 48 °F
Forecast: 41 / 71 °F
Wind: 8 mph from Northwest

Location: Smith Reynolds Airport

Current Time: Oct 25, 2014 at 9:56:14 AM

Latest Report: Oct 25, 2014 at 8:54 AM


Visibility: 10 mi

Pressure: 30.04 "Hg

Humidity: 61%

Dew point: 38 °F

Location of Winston-SalemLocation

Historic Weather in Winston-Salem — Graph

°F

Winston-Salem temperature yesterday

Maximum temperature yesterday: 67 °F (at 4:54 PM)
Minimum temperature yesterday: 43 °F (at 7:54 AM)
Average temperature yesterday: 56 °F

Past Weeks' High & Low Weather Summary

 TemperatureHumidityPressure
High83 °F (Oct 10, 3:54 PM)97% (Oct 11, 3:58 AM)30.27 "Hg (Oct 11, 3:58 AM)
Low39 °F (Oct 25, 7:54 AM)28% (Oct 19, 5:54 PM)29.77 "Hg (Oct 16, 4:54 AM)
Average60 °F69%29.99 "Hg
* Reported Oct 10 7:54 AM — Oct 25 7:54 AM, Winston-Salem, Weather by CustomWeather, © 2014

Note: Actual official high and low records may vary slightly from our data, if they occured in-between our weather recording intervals... More about our weather records

Advertising

Winston-Salem weather history for previous 24 hours

 ConditionsComfort  
Time TempWeatherWind HumidityBarometerVisibility
7:54 AM
Oct 25
39 °FClear.No wind82%30.03 "Hg10 mi
6:54 AM42 °FClear.No wind71%30.02 "Hg10 mi
5:54 AM41 °FClear.No wind76%30.01 "Hg10 mi
4:54 AM46 °FClear.5 mph61%29.99 "Hg10 mi
3:54 AM48 °FClear.7 mph56%29.99 "Hg10 mi
2:54 AM49 °FClear.7 mph52%30.00 "Hg10 mi
1:54 AM48 °FClear.7 mph61%29.99 "Hg10 mi
12:54 AM52 °FClear.7 mph53%30.00 "Hg10 mi
11:54 PM
Oct 24
53 °FClear.6 mph51%30.00 "Hg10 mi
10:54 PM56 °FClear.9 mph51%30.00 "Hg10 mi
9:54 PM55 °FClear.No wind59%30.01 "Hg10 mi
8:54 PM59 °FClear.3 mph49%30.00 "Hg10 mi
7:54 PM54 °FClear.No wind64%29.99 "Hg10 mi
6:54 PM59 °FSunny.No wind54%29.98 "Hg10 mi
5:54 PM65 °FSunny.3 mph37%29.98 "Hg10 mi
4:54 PM67 °FSunny.6 mph31%29.98 "Hg10 mi
3:54 PM66 °FSunny.5 mph33%29.98 "Hg10 mi
2:54 PM65 °FSunny.3 mph33%29.98 "Hg10 mi
1:54 PM66 °FSunny.5 mph36%30.00 "Hg10 mi
12:54 PM66 °FSunny.5 mph39%30.03 "Hg10 mi
11:54 AM65 °FSunny.No wind40%30.06 "Hg10 mi
10:54 AM61 °FSunny.3 mph46%30.07 "Hg10 mi
9:54 AM56 °FSunny.5 mph58%30.07 "Hg10 mi
Weather by CustomWeather, © 2014

See weather overviewHow to use our weather pages